Year,Month,Day,Hour,Minute,Value (Times are PST for temperature in C)
2018,10,14,00,00,9.40
2018,10,14,00,01,9.40
2018,10,14,00,02,9.40
2018,10,14,00,03,9.40
2018,10,14,00,04,9.40
2018,10,14,00,05,9.40
2018,10,14,00,06,9.40
2018,10,14,00,07,9.40
2018,10,14,00,08,9.30
2018,10,14,00,09,9.30
2018,10,14,00,10,9.30
2018,10,14,00,11,9.30
2018,10,14,00,12,9.20
2018,10,14,00,13,9.20
2018,10,14,00,14,9.20
2018,10,14,00,15,9.20
2018,10,14,00,16,9.10
2018,10,14,00,17,9.10
2018,10,14,00,18,9.00
2018,10,14,00,19,9.00
2018,10,14,00,20,9.00
2018,10,14,00,21,9.00
2018,10,14,00,22,9.00
2018,10,14,00,23,9.10
2018,10,14,00,24,9.10
2018,10,14,00,25,9.10
2018,10,14,00,26,9.20
2018,10,14,00,27,9.20
2018,10,14,00,28,9.20
2018,10,14,00,29,9.30
2018,10,14,00,30,9.20
2018,10,14,00,31,9.20
2018,10,14,00,32,9.20
2018,10,14,00,33,9.20
2018,10,14,00,34,9.20
2018,10,14,00,35,9.20
2018,10,14,00,36,9.10
2018,10,14,00,37,9.10
2018,10,14,00,38,9.10
2018,10,14,00,39,9.10
2018,10,14,00,40,9.00
2018,10,14,00,41,9.00
2018,10,14,00,42,9.00
2018,10,14,00,43,9.00
2018,10,14,00,44,8.90
2018,10,14,00,45,8.90
2018,10,14,00,46,8.90
2018,10,14,00,47,8.90
2018,10,14,00,48,8.90
2018,10,14,00,49,8.80
2018,10,14,00,50,8.80
2018,10,14,00,51,8.80
2018,10,14,00,52,8.80
2018,10,14,00,53,8.70
2018,10,14,00,54,8.70
2018,10,14,00,55,8.70
2018,10,14,00,56,8.70
2018,10,14,00,57,8.70
2018,10,14,00,58,8.70
2018,10,14,00,59,8.70
2018,10,14,01,00,8.70
2018,10,14,01,01,8.70
2018,10,14,01,02,8.70
2018,10,14,01,03,8.70
2018,10,14,01,04,8.80
2018,10,14,01,05,8.80
2018,10,14,01,06,8.80
2018,10,14,01,07,8.80
2018,10,14,01,08,8.90
2018,10,14,01,09,8.90
2018,10,14,01,10,9.00
2018,10,14,01,11,9.10
2018,10,14,01,12,9.10
2018,10,14,01,13,9.20
2018,10,14,01,14,9.20
2018,10,14,01,15,9.20
2018,10,14,01,16,9.20
2018,10,14,01,17,9.20
2018,10,14,01,18,9.20
2018,10,14,01,19,9.20
2018,10,14,01,20,9.20
2018,10,14,01,21,9.20
2018,10,14,01,22,9.10
2018,10,14,01,23,9.10
2018,10,14,01,24,9.00
2018,10,14,01,25,9.00
2018,10,14,01,26,9.00
2018,10,14,01,27,8.90
2018,10,14,01,28,8.90
2018,10,14,01,29,8.90
2018,10,14,01,30,8.90
2018,10,14,01,31,8.90
2018,10,14,01,32,8.90
2018,10,14,01,33,8.90
2018,10,14,01,34,8.90
2018,10,14,01,35,8.90
2018,10,14,01,36,8.90
2018,10,14,01,37,8.90
2018,10,14,01,38,8.90
2018,10,14,01,39,8.90
2018,10,14,01,40,8.90
2018,10,14,01,41,8.90
2018,10,14,01,42,8.90
2018,10,14,01,43,8.90
2018,10,14,01,44,8.90
2018,10,14,01,45,8.90
2018,10,14,01,46,8.90
2018,10,14,01,47,8.90
2018,10,14,01,48,8.90
2018,10,14,01,49,8.90
2018,10,14,01,50,8.90
2018,10,14,01,51,9.00
2018,10,14,01,52,9.00
2018,10,14,01,53,9.00
2018,10,14,01,54,9.00
2018,10,14,01,55,9.00
2018,10,14,01,56,9.10
2018,10,14,01,57,9.10
2018,10,14,01,58,9.10
2018,10,14,01,59,9.10
2018,10,14,02,00,9.10
2018,10,14,02,01,9.10
2018,10,14,02,02,9.20
2018,10,14,02,03,9.20
2018,10,14,02,04,9.20
2018,10,14,02,05,9.20
2018,10,14,02,06,9.20
2018,10,14,02,07,9.20
2018,10,14,02,08,9.20
2018,10,14,02,09,9.20
2018,10,14,02,10,9.20
2018,10,14,02,11,9.20
2018,10,14,02,12,9.20
2018,10,14,02,13,9.20
2018,10,14,02,14,9.20
2018,10,14,02,15,9.20
2018,10,14,02,16,9.20
2018,10,14,02,17,9.20
2018,10,14,02,18,9.20
2018,10,14,02,19,9.20
2018,10,14,02,20,9.20
2018,10,14,02,21,9.20
2018,10,14,02,22,9.20
2018,10,14,02,23,9.30
2018,10,14,02,24,9.30
2018,10,14,02,25,9.20
2018,10,14,02,26,9.20
2018,10,14,02,27,9.20
2018,10,14,02,28,9.20
2018,10,14,02,29,9.20
2018,10,14,02,30,9.20
2018,10,14,02,31,9.20
2018,10,14,02,32,9.20
2018,10,14,02,33,9.20
2018,10,14,02,34,9.20
2018,10,14,02,35,9.20
2018,10,14,02,36,9.20
2018,10,14,02,37,9.20
2018,10,14,02,38,9.10
2018,10,14,02,39,9.10
2018,10,14,02,40,9.10
2018,10,14,02,41,9.10
2018,10,14,02,42,9.10
2018,10,14,02,43,9.10
2018,10,14,02,44,9.10
2018,10,14,02,45,9.10
2018,10,14,02,46,9.10
2018,10,14,02,47,9.00
2018,10,14,02,48,9.00
2018,10,14,02,49,9.00
2018,10,14,02,50,9.00
2018,10,14,02,51,9.00
2018,10,14,02,52,8.90
2018,10,14,02,53,9.00
2018,10,14,02,54,8.90
2018,10,14,02,55,8.90
2018,10,14,02,56,8.90
2018,10,14,02,57,8.90
2018,10,14,02,58,8.90
2018,10,14,02,59,8.80
2018,10,14,03,00,8.80
2018,10,14,03,01,8.80
2018,10,14,03,02,8.80
2018,10,14,03,03,8.80
2018,10,14,03,04,8.80
2018,10,14,03,05,8.70
2018,10,14,03,06,8.70
2018,10,14,03,07,8.70
2018,10,14,03,08,8.70
2018,10,14,03,09,8.70
2018,10,14,03,10,8.70
2018,10,14,03,11,8.70
2018,10,14,03,12,8.70
2018,10,14,03,13,8.70
2018,10,14,03,14,8.70
2018,10,14,03,15,8.70
2018,10,14,03,16,8.70
2018,10,14,03,17,8.60
2018,10,14,03,18,8.60
2018,10,14,03,19,8.60
2018,10,14,03,20,8.60
2018,10,14,03,21,8.60
2018,10,14,03,22,8.60
2018,10,14,03,23,8.60
2018,10,14,03,24,8.50
2018,10,14,03,25,8.50
2018,10,14,03,26,8.50
2018,10,14,03,27,8.50
2018,10,14,03,28,8.50
2018,10,14,03,29,8.40
2018,10,14,03,30,8.40
2018,10,14,03,31,8.40
2018,10,14,03,32,8.40
2018,10,14,03,33,8.40
2018,10,14,03,34,8.40
2018,10,14,03,35,8.40
2018,10,14,03,36,8.30
2018,10,14,03,37,8.30
2018,10,14,03,38,8.30
2018,10,14,03,39,8.30
2018,10,14,03,40,8.30
2018,10,14,03,41,8.30
2018,10,14,03,42,8.30
2018,10,14,03,43,8.30
2018,10,14,03,44,8.30
2018,10,14,03,45,8.30
2018,10,14,03,46,8.30
2018,10,14,03,47,8.30
2018,10,14,03,48,8.30
2018,10,14,03,49,8.30
2018,10,14,03,50,8.30
2018,10,14,03,51,8.20
2018,10,14,03,52,8.20
2018,10,14,03,53,8.20
2018,10,14,03,54,8.20
2018,10,14,03,55,8.10
2018,10,14,03,56,8.10
2018,10,14,03,57,8.10
2018,10,14,03,58,8.10
2018,10,14,03,59,8.10
2018,10,14,04,00,8.10
2018,10,14,04,01,8.10
2018,10,14,04,02,8.10
2018,10,14,04,03,8.10
2018,10,14,04,04,8.10
2018,10,14,04,05,8.10
2018,10,14,04,06,8.10
2018,10,14,04,07,8.20
2018,10,14,04,08,8.20
2018,10,14,04,09,8.20
2018,10,14,04,10,8.20
2018,10,14,04,11,8.20
2018,10,14,04,12,8.20
2018,10,14,04,13,8.20
2018,10,14,04,14,8.20
2018,10,14,04,15,8.20
2018,10,14,04,16,8.20
2018,10,14,04,17,8.20
2018,10,14,04,18,8.20
2018,10,14,04,19,8.20
2018,10,14,04,20,8.20
2018,10,14,04,21,8.20
2018,10,14,04,22,8.20
2018,10,14,04,23,8.20
2018,10,14,04,24,8.20
2018,10,14,04,25,8.20
2018,10,14,04,26,8.20
2018,10,14,04,27,8.20
2018,10,14,04,28,8.20
2018,10,14,04,29,8.20
2018,10,14,04,30,8.20
2018,10,14,04,31,8.20
2018,10,14,04,32,8.20
2018,10,14,04,33,8.20
2018,10,14,04,34,8.20
2018,10,14,04,35,8.20
2018,10,14,04,36,8.20
2018,10,14,04,37,8.20
2018,10,14,04,38,8.20
2018,10,14,04,39,8.10
2018,10,14,04,40,8.10
2018,10,14,04,41,8.10
2018,10,14,04,42,8.10
2018,10,14,04,43,8.10
2018,10,14,04,44,8.10
2018,10,14,04,45,8.10
2018,10,14,04,46,8.10
2018,10,14,04,47,8.10
2018,10,14,04,48,8.10
2018,10,14,04,49,8.10
2018,10,14,04,50,8.10
2018,10,14,04,51,8.10
2018,10,14,04,52,8.10
2018,10,14,04,53,8.10
2018,10,14,04,54,8.20
2018,10,14,04,55,8.20
2018,10,14,04,56,8.20
2018,10,14,04,57,8.20
2018,10,14,04,58,8.20
2018,10,14,04,59,8.20
2018,10,14,05,00,8.30
2018,10,14,05,01,8.30
2018,10,14,05,02,8.30
2018,10,14,05,03,8.30
2018,10,14,05,04,8.30
2018,10,14,05,05,8.30
2018,10,14,05,06,8.30
2018,10,14,05,07,8.30
2018,10,14,05,08,8.30
2018,10,14,05,09,8.30
2018,10,14,05,10,8.30
2018,10,14,05,11,8.30
2018,10,14,05,12,8.30
2018,10,14,05,13,8.30
2018,10,14,05,14,8.30
2018,10,14,05,15,8.30
2018,10,14,05,16,8.30
2018,10,14,05,17,8.30
2018,10,14,05,18,8.30
2018,10,14,05,19,8.30
2018,10,14,05,20,8.30
2018,10,14,05,21,8.30
2018,10,14,05,22,8.30
2018,10,14,05,23,8.30
2018,10,14,05,24,8.30
2018,10,14,05,25,8.30
2018,10,14,05,26,8.30
2018,10,14,05,27,8.30
2018,10,14,05,28,8.30
2018,10,14,05,29,8.30
2018,10,14,05,30,8.30
2018,10,14,05,31,8.30
2018,10,14,05,32,8.30
2018,10,14,05,33,8.30
2018,10,14,05,34,8.30
2018,10,14,05,35,8.30
2018,10,14,05,36,8.30
2018,10,14,05,37,8.30
2018,10,14,05,38,8.30
2018,10,14,05,39,8.30
2018,10,14,05,40,8.30
2018,10,14,05,41,8.30
2018,10,14,05,42,8.30
2018,10,14,05,43,8.30
2018,10,14,05,44,8.30
2018,10,14,05,45,8.30
2018,10,14,05,46,8.30
2018,10,14,05,47,8.30
2018,10,14,05,48,8.30
2018,10,14,05,49,8.30
2018,10,14,05,50,8.30
2018,10,14,05,51,8.30
2018,10,14,05,52,8.30
2018,10,14,05,53,8.30
2018,10,14,05,54,8.30
2018,10,14,05,55,8.30
2018,10,14,05,56,8.30
2018,10,14,05,57,8.30
2018,10,14,05,58,8.30
2018,10,14,05,59,8.30
2018,10,14,06,00,8.30
2018,10,14,06,01,8.30
2018,10,14,06,02,8.30
2018,10,14,06,03,8.30
2018,10,14,06,04,8.30
2018,10,14,06,05,8.20
2018,10,14,06,06,8.20
2018,10,14,06,07,8.20
2018,10,14,06,08,8.20
2018,10,14,06,09,8.20
2018,10,14,06,10,8.20
2018,10,14,06,11,8.20
2018,10,14,06,12,8.20
2018,10,14,06,13,8.20
2018,10,14,06,14,8.10
2018,10,14,06,15,8.10
2018,10,14,06,16,8.10
2018,10,14,06,17,8.10
2018,10,14,06,18,8.10
2018,10,14,06,19,8.10
2018,10,14,06,20,8.10
2018,10,14,06,21,8.10
2018,10,14,06,22,8.10
2018,10,14,06,23,8.00
2018,10,14,06,24,8.00
2018,10,14,06,25,8.00
2018,10,14,06,26,8.00
2018,10,14,06,27,7.90
2018,10,14,06,28,7.90
2018,10,14,06,29,7.90
2018,10,14,06,30,7.90
2018,10,14,06,31,7.90
2018,10,14,06,32,7.90
2018,10,14,06,33,7.80
2018,10,14,06,34,7.80
2018,10,14,06,35,7.80
2018,10,14,06,36,7.80
2018,10,14,06,37,7.80
2018,10,14,06,38,7.80
2018,10,14,06,39,7.70
2018,10,14,06,40,7.70
2018,10,14,06,41,7.70
2018,10,14,06,42,7.70
2018,10,14,06,43,7.70
2018,10,14,06,44,7.70
2018,10,14,06,45,7.60
2018,10,14,06,46,7.60
2018,10,14,06,47,7.60
2018,10,14,06,48,7.60
2018,10,14,06,49,7.60
2018,10,14,06,50,7.60
2018,10,14,06,51,7.60
2018,10,14,06,52,7.60
2018,10,14,06,53,7.50
2018,10,14,06,54,7.50
2018,10,14,06,55,7.50
2018,10,14,06,56,7.50
2018,10,14,06,57,7.50
2018,10,14,06,58,7.50
2018,10,14,06,59,7.50
2018,10,14,07,00,7.50
2018,10,14,07,01,7.40
2018,10,14,07,02,7.40
2018,10,14,07,03,7.40
2018,10,14,07,04,7.40
2018,10,14,07,05,7.40
2018,10,14,07,06,7.40
2018,10,14,07,07,7.30
2018,10,14,07,08,7.30
2018,10,14,07,09,7.30
2018,10,14,07,10,7.30
2018,10,14,07,11,7.30
2018,10,14,07,12,7.30
2018,10,14,07,13,7.30
2018,10,14,07,14,7.30
2018,10,14,07,15,7.30
2018,10,14,07,16,7.30
2018,10,14,07,17,7.30
2018,10,14,07,18,7.30
2018,10,14,07,19,7.30
2018,10,14,07,20,7.30
2018,10,14,07,21,7.20
2018,10,14,07,22,7.30
2018,10,14,07,23,7.30
2018,10,14,07,24,7.30
2018,10,14,07,25,7.30
2018,10,14,07,26,7.30
2018,10,14,07,27,7.30
2018,10,14,07,28,7.30
2018,10,14,07,29,7.30
2018,10,14,07,30,7.30
2018,10,14,07,31,7.30
2018,10,14,07,32,7.30
2018,10,14,07,33,7.30
2018,10,14,07,34,7.40
2018,10,14,07,35,7.40
2018,10,14,07,36,7.40
2018,10,14,07,37,7.40
2018,10,14,07,38,7.40
2018,10,14,07,39,7.40
2018,10,14,07,40,7.40
2018,10,14,07,41,7.40
2018,10,14,07,42,7.40
2018,10,14,07,43,7.30
2018,10,14,07,44,7.40
2018,10,14,07,45,7.30
2018,10,14,07,46,7.30
2018,10,14,07,47,7.30
2018,10,14,07,48,7.30
2018,10,14,07,49,7.30
2018,10,14,07,50,7.30
2018,10,14,07,51,7.30
2018,10,14,07,52,7.30
2018,10,14,07,53,7.20
2018,10,14,07,54,7.20
2018,10,14,07,55,7.20
2018,10,14,07,56,7.20
2018,10,14,07,57,7.20
2018,10,14,07,58,7.20
2018,10,14,07,59,7.20
2018,10,14,08,00,7.10
2018,10,14,08,01,7.10
2018,10,14,08,02,7.20
2018,10,14,08,03,7.20
2018,10,14,08,04,7.10
2018,10,14,08,05,7.10
2018,10,14,08,06,7.20
2018,10,14,08,07,7.20
2018,10,14,08,08,7.20
2018,10,14,08,09,7.20
2018,10,14,08,10,7.20
2018,10,14,08,11,7.20
2018,10,14,08,12,7.20
2018,10,14,08,13,7.20
2018,10,14,08,14,7.10
2018,10,14,08,15,7.10
2018,10,14,08,16,7.10
2018,10,14,08,17,7.10
2018,10,14,08,18,7.10
2018,10,14,08,19,7.10
2018,10,14,08,20,7.10
2018,10,14,08,21,7.10
2018,10,14,08,22,7.10
2018,10,14,08,23,7.10
2018,10,14,08,24,7.10
2018,10,14,08,25,7.10
2018,10,14,08,26,7.10
2018,10,14,08,27,7.10
2018,10,14,08,28,7.10
2018,10,14,08,29,7.10
2018,10,14,08,30,7.10
2018,10,14,08,31,7.10
2018,10,14,08,32,7.10
2018,10,14,08,33,7.10
2018,10,14,08,34,7.10
2018,10,14,08,35,7.10
2018,10,14,08,36,7.10
2018,10,14,08,37,7.10
2018,10,14,08,38,7.10
2018,10,14,08,39,7.10
2018,10,14,08,40,7.10
2018,10,14,08,41,7.10
2018,10,14,08,42,7.10
2018,10,14,08,43,7.10
2018,10,14,08,44,7.10
2018,10,14,08,45,7.10
2018,10,14,08,46,7.10
2018,10,14,08,47,7.10
2018,10,14,08,48,7.10
2018,10,14,08,49,7.10
2018,10,14,08,50,7.10
2018,10,14,08,51,7.10
2018,10,14,08,52,7.20
2018,10,14,08,53,7.20
2018,10,14,08,54,7.20
2018,10,14,08,55,7.20
2018,10,14,08,56,7.20
2018,10,14,08,57,7.20
2018,10,14,08,58,7.20
2018,10,14,08,59,7.30
2018,10,14,09,00,7.30
2018,10,14,09,01,7.30
2018,10,14,09,02,7.30
2018,10,14,09,03,7.30
2018,10,14,09,04,7.30
2018,10,14,09,05,7.30
2018,10,14,09,06,7.30
2018,10,14,09,07,7.30
2018,10,14,09,08,7.30
2018,10,14,09,09,7.30
2018,10,14,09,10,7.30
2018,10,14,09,11,7.30
2018,10,14,09,12,7.30
2018,10,14,09,13,7.30
2018,10,14,09,14,7.30
2018,10,14,09,15,7.30
2018,10,14,09,16,7.30
2018,10,14,09,17,7.30
2018,10,14,09,18,7.30
2018,10,14,09,19,7.30
2018,10,14,09,20,7.30
2018,10,14,09,21,7.40
2018,10,14,09,22,7.40
2018,10,14,09,23,7.40
2018,10,14,09,24,7.40
2018,10,14,09,25,7.40
2018,10,14,09,26,7.40
2018,10,14,09,27,7.40
2018,10,14,09,28,7.50
2018,10,14,09,29,7.50
2018,10,14,09,30,7.50
2018,10,14,09,31,7.50
2018,10,14,09,32,7.50
2018,10,14,09,33,7.60
2018,10,14,09,34,7.60
2018,10,14,09,35,7.60
2018,10,14,09,36,7.60
2018,10,14,09,37,7.60
2018,10,14,09,38,7.70
2018,10,14,09,39,7.70
2018,10,14,09,40,7.70
2018,10,14,09,41,7.70
2018,10,14,09,42,7.70
2018,10,14,09,43,7.70
2018,10,14,09,44,7.70
2018,10,14,09,45,7.70
2018,10,14,09,46,7.70
2018,10,14,09,47,7.80
2018,10,14,09,48,7.80
2018,10,14,09,49,7.80
2018,10,14,09,50,7.80
2018,10,14,09,51,7.80
2018,10,14,09,52,7.80
2018,10,14,09,53,7.90
2018,10,14,09,54,7.90
2018,10,14,09,55,7.90
2018,10,14,09,56,7.90
2018,10,14,09,57,7.90
2018,10,14,09,58,8.00
2018,10,14,09,59,8.00
2018,10,14,10,00,8.00
2018,10,14,10,01,8.00
2018,10,14,10,02,8.10
2018,10,14,10,03,8.10
2018,10,14,10,04,8.10
2018,10,14,10,05,8.10
2018,10,14,10,06,8.10
2018,10,14,10,07,8.10
2018,10,14,10,08,8.10
2018,10,14,10,09,8.20
2018,10,14,10,10,8.20
2018,10,14,10,11,8.20
2018,10,14,10,12,8.20
2018,10,14,10,13,8.30
2018,10,14,10,14,8.30
2018,10,14,10,15,8.30
2018,10,14,10,16,8.30
2018,10,14,10,17,8.30
2018,10,14,10,18,8.40
2018,10,14,10,19,8.40
2018,10,14,10,20,8.40
2018,10,14,10,21,8.40
2018,10,14,10,22,8.40
2018,10,14,10,23,8.40
2018,10,14,10,24,8.50
2018,10,14,10,25,8.50
2018,10,14,10,26,8.50
2018,10,14,10,27,8.60
2018,10,14,10,28,8.60
2018,10,14,10,29,8.60
2018,10,14,10,30,8.60
2018,10,14,10,31,8.60
2018,10,14,10,32,8.60
2018,10,14,10,33,8.60
2018,10,14,10,34,8.60
2018,10,14,10,35,8.60
2018,10,14,10,36,8.70
2018,10,14,10,37,8.70
2018,10,14,10,38,8.70
2018,10,14,10,39,8.70
2018,10,14,10,40,8.70
2018,10,14,10,41,8.80
2018,10,14,10,42,8.80
2018,10,14,10,43,8.80
2018,10,14,10,44,8.80
2018,10,14,10,45,8.90
2018,10,14,10,46,8.90
2018,10,14,10,47,8.90
2018,10,14,10,48,9.00
2018,10,14,10,49,9.00
2018,10,14,10,50,9.00
2018,10,14,10,51,9.10
2018,10,14,10,52,9.10
2018,10,14,10,53,9.10
2018,10,14,10,54,9.10
2018,10,14,10,55,9.20
2018,10,14,10,56,9.20
2018,10,14,10,57,9.20
2018,10,14,10,58,9.20
2018,10,14,10,59,9.30
2018,10,14,11,00,9.30
2018,10,14,11,01,9.30
2018,10,14,11,02,9.40
2018,10,14,11,03,9.40
2018,10,14,11,04,9.50
2018,10,14,11,05,9.50
2018,10,14,11,06,9.60
2018,10,14,11,07,9.60
2018,10,14,11,08,9.60
2018,10,14,11,09,9.70
2018,10,14,11,10,9.70
2018,10,14,11,11,9.70
2018,10,14,11,12,9.70
2018,10,14,11,13,9.80
2018,10,14,11,14,9.70
2018,10,14,11,15,9.80
2018,10,14,11,16,9.80
2018,10,14,11,17,9.80
2018,10,14,11,18,9.80
2018,10,14,11,19,9.80
2018,10,14,11,20,9.90
2018,10,14,11,21,9.90
2018,10,14,11,22,9.90
2018,10,14,11,23,9.90
2018,10,14,11,24,9.90
2018,10,14,11,25,9.90
2018,10,14,11,26,9.90
2018,10,14,11,27,10.00
2018,10,14,11,28,10.00
2018,10,14,11,29,10.10
2018,10,14,11,30,10.10
2018,10,14,11,31,10.10
2018,10,14,11,32,10.10
2018,10,14,11,33,10.10
2018,10,14,11,34,10.10
2018,10,14,11,35,10.10
2018,10,14,11,36,10.10
2018,10,14,11,37,10.20
2018,10,14,11,38,10.20
2018,10,14,11,39,10.20
2018,10,14,11,40,10.20
2018,10,14,11,41,10.20
2018,10,14,11,42,10.30
2018,10,14,11,43,10.30
2018,10,14,11,44,10.30
2018,10,14,11,45,10.30
2018,10,14,11,46,10.40
2018,10,14,11,47,10.40
2018,10,14,11,48,10.40
2018,10,14,11,49,10.40
2018,10,14,11,50,10.40
2018,10,14,11,51,10.40
2018,10,14,11,52,10.40
2018,10,14,11,53,10.40
2018,10,14,11,54,10.50
2018,10,14,11,55,10.50
2018,10,14,11,56,10.50
2018,10,14,11,57,10.50
2018,10,14,11,58,10.50
2018,10,14,11,59,10.50
2018,10,14,12,00,10.50
2018,10,14,12,01,10.50
2018,10,14,12,02,10.50
2018,10,14,12,03,10.60
2018,10,14,12,04,10.60
2018,10,14,12,05,10.60
2018,10,14,12,06,10.50
2018,10,14,12,07,10.60
2018,10,14,12,08,10.60
2018,10,14,12,09,10.60
2018,10,14,12,10,10.60
2018,10,14,12,11,10.60
2018,10,14,12,12,10.60
2018,10,14,12,13,10.60
2018,10,14,12,14,10.60
2018,10,14,12,15,10.60
2018,10,14,12,16,10.70
2018,10,14,12,17,10.70
2018,10,14,12,18,10.70
2018,10,14,12,19,10.70
2018,10,14,12,20,10.70
2018,10,14,12,21,10.80
2018,10,14,12,22,10.80
2018,10,14,12,23,10.80
2018,10,14,12,24,10.80
2018,10,14,12,25,10.80
2018,10,14,12,26,10.90
2018,10,14,12,27,10.90
2018,10,14,12,28,10.90
2018,10,14,12,29,11.00
2018,10,14,12,30,11.00
2018,10,14,12,31,11.00
2018,10,14,12,32,11.10
2018,10,14,12,33,11.10
2018,10,14,12,34,11.10
2018,10,14,12,35,11.10
2018,10,14,12,36,11.20
2018,10,14,12,37,11.20
2018,10,14,12,38,11.20
2018,10,14,12,39,11.20
2018,10,14,12,40,11.20
2018,10,14,12,41,11.20
2018,10,14,12,42,11.30
2018,10,14,12,43,11.30
2018,10,14,12,44,11.30
2018,10,14,12,45,11.30
2018,10,14,12,46,11.30
2018,10,14,12,47,11.30
2018,10,14,12,48,11.30
2018,10,14,12,49,11.30
2018,10,14,12,50,11.30
2018,10,14,12,51,11.30
2018,10,14,12,52,11.30
2018,10,14,12,53,11.30
2018,10,14,12,54,11.30
2018,10,14,12,55,11.30
2018,10,14,12,56,11.40
2018,10,14,12,57,11.40
2018,10,14,12,58,11.40
2018,10,14,12,59,11.40
2018,10,14,13,00,11.40
2018,10,14,13,01,11.40
2018,10,14,13,02,11.40
2018,10,14,13,03,11.40
2018,10,14,13,04,11.40
2018,10,14,13,05,11.40
2018,10,14,13,06,11.40
2018,10,14,13,07,11.40
2018,10,14,13,08,11.40
2018,10,14,13,09,11.40
2018,10,14,13,10,11.50
2018,10,14,13,11,11.50
2018,10,14,13,12,11.50
2018,10,14,13,13,11.60
2018,10,14,13,14,11.60
2018,10,14,13,15,11.60
2018,10,14,13,16,11.60
2018,10,14,13,17,11.60
2018,10,14,13,18,11.70
2018,10,14,13,19,11.70
2018,10,14,13,20,11.70
2018,10,14,13,21,11.70
2018,10,14,13,22,11.70
2018,10,14,13,23,11.70
2018,10,14,13,24,11.70
2018,10,14,13,25,11.70
2018,10,14,13,26,11.70
2018,10,14,13,27,11.80
2018,10,14,13,28,11.80
2018,10,14,13,29,11.80
2018,10,14,13,30,11.80
2018,10,14,13,31,11.80
2018,10,14,13,32,11.80
2018,10,14,13,33,11.90
2018,10,14,13,34,11.90
2018,10,14,13,35,11.90
2018,10,14,13,36,12.00
2018,10,14,13,37,12.00
2018,10,14,13,38,12.00
2018,10,14,13,39,12.10
2018,10,14,13,40,12.10
2018,10,14,13,41,12.20
2018,10,14,13,42,12.30
2018,10,14,13,43,12.30
2018,10,14,13,44,12.40
2018,10,14,13,45,12.50
2018,10,14,13,46,12.60
2018,10,14,13,47,12.70
2018,10,14,13,48,12.80
2018,10,14,13,49,12.90
2018,10,14,13,50,12.90
2018,10,14,13,51,12.90
2018,10,14,13,52,12.90
2018,10,14,13,53,12.90
2018,10,14,13,54,12.90
2018,10,14,13,55,12.90
2018,10,14,13,56,12.90
2018,10,14,13,57,12.90
2018,10,14,13,58,13.00
2018,10,14,13,59,13.00
2018,10,14,14,00,13.10
2018,10,14,14,01,13.00
2018,10,14,14,02,13.10
2018,10,14,14,03,13.10
2018,10,14,14,04,13.20
2018,10,14,14,05,13.30
2018,10,14,14,06,13.40
2018,10,14,14,07,13.50
2018,10,14,14,08,13.50
2018,10,14,14,09,13.60
2018,10,14,14,10,13.60
2018,10,14,14,11,13.70
2018,10,14,14,12,13.80
2018,10,14,14,13,13.90
2018,10,14,14,14,14.00
2018,10,14,14,15,14.20
2018,10,14,14,16,14.30
2018,10,14,14,17,14.40
2018,10,14,14,18,14.50
2018,10,14,14,19,14.60
2018,10,14,14,20,14.70
2018,10,14,14,21,14.80
2018,10,14,14,22,14.80
2018,10,14,14,23,14.90
2018,10,14,14,24,15.10
2018,10,14,14,25,15.10
2018,10,14,14,26,15.20
2018,10,14,14,27,15.30
2018,10,14,14,28,15.30
2018,10,14,14,29,15.40
2018,10,14,14,30,15.40
2018,10,14,14,31,15.40
2018,10,14,14,32,15.50
2018,10,14,14,33,15.50
2018,10,14,14,34,15.60
2018,10,14,14,35,15.60
2018,10,14,14,36,15.60
2018,10,14,14,37,15.60
2018,10,14,14,38,15.60
2018,10,14,14,39,15.70
2018,10,14,14,40,15.70
2018,10,14,14,41,15.70
2018,10,14,14,42,15.70
2018,10,14,14,43,15.80
2018,10,14,14,44,15.80
2018,10,14,14,45,15.80
2018,10,14,14,46,15.80
2018,10,14,14,47,15.90
2018,10,14,14,48,15.90
2018,10,14,14,49,15.90
2018,10,14,14,50,16.00
2018,10,14,14,51,16.00
2018,10,14,14,52,16.00
2018,10,14,14,53,16.10
2018,10,14,14,54,16.10
2018,10,14,14,55,16.10
2018,10,14,14,56,16.10
2018,10,14,14,57,16.10
2018,10,14,14,58,16.10
2018,10,14,14,59,16.00
2018,10,14,15,00,16.00
2018,10,14,15,01,16.00
2018,10,14,15,02,16.00
2018,10,14,15,03,15.90
2018,10,14,15,04,15.90
2018,10,14,15,05,15.90
2018,10,14,15,06,15.90
2018,10,14,15,07,16.00
2018,10,14,15,08,16.10
2018,10,14,15,09,16.10
2018,10,14,15,10,16.10
2018,10,14,15,11,16.10
2018,10,14,15,12,16.10
2018,10,14,15,13,16.00
2018,10,14,15,14,16.00
2018,10,14,15,15,16.00
2018,10,14,15,16,15.90
2018,10,14,15,17,15.90
2018,10,14,15,18,15.90
2018,10,14,15,19,15.90
2018,10,14,15,20,15.80
2018,10,14,15,21,15.80
2018,10,14,15,22,15.80
2018,10,14,15,23,15.80
2018,10,14,15,24,15.90
2018,10,14,15,25,15.90
2018,10,14,15,26,15.90
2018,10,14,15,27,15.90
2018,10,14,15,28,16.00
2018,10,14,15,29,16.00
2018,10,14,15,30,16.00
2018,10,14,15,31,16.00
2018,10,14,15,32,15.90
2018,10,14,15,33,15.90
2018,10,14,15,34,15.80
2018,10,14,15,35,15.80
2018,10,14,15,36,15.70
2018,10,14,15,37,15.60
2018,10,14,15,38,15.40
2018,10,14,15,39,15.30
2018,10,14,15,40,15.20
2018,10,14,15,41,15.20
2018,10,14,15,42,15.10
2018,10,14,15,43,15.00
2018,10,14,15,44,15.00
2018,10,14,15,45,15.00
2018,10,14,15,46,14.90
2018,10,14,15,47,14.90
2018,10,14,15,48,14.80
2018,10,14,15,49,14.70
2018,10,14,15,50,14.60
2018,10,14,15,51,14.50
2018,10,14,15,52,14.50
2018,10,14,15,53,14.40
2018,10,14,15,54,14.40
2018,10,14,15,55,14.50
2018,10,14,15,56,14.50
2018,10,14,15,57,14.50
2018,10,14,15,58,14.50
2018,10,14,15,59,14.50
2018,10,14,16,00,14.40
2018,10,14,16,01,14.40
2018,10,14,16,02,14.30
2018,10,14,16,03,14.30
2018,10,14,16,04,14.30
2018,10,14,16,05,14.30
2018,10,14,16,06,14.30
2018,10,14,16,07,14.30
2018,10,14,16,08,14.20
2018,10,14,16,09,14.20
2018,10,14,16,10,14.30
2018,10,14,16,11,14.40
2018,10,14,16,12,14.50
2018,10,14,16,13,14.50
2018,10,14,16,14,14.60
2018,10,14,16,15,14.60
2018,10,14,16,16,14.50
2018,10,14,16,17,14.50
2018,10,14,16,18,14.50
2018,10,14,16,19,14.50
2018,10,14,16,20,14.50
2018,10,14,16,21,14.60
2018,10,14,16,22,14.60
2018,10,14,16,23,14.70
2018,10,14,16,24,14.70
2018,10,14,16,25,14.70
2018,10,14,16,26,14.80
2018,10,14,16,27,14.80
2018,10,14,16,28,14.90
2018,10,14,16,29,14.90
2018,10,14,16,30,15.00
2018,10,14,16,31,15.00
2018,10,14,16,32,15.10
2018,10,14,16,33,15.10
2018,10,14,16,34,15.10
2018,10,14,16,35,15.10
2018,10,14,16,36,15.10
2018,10,14,16,37,15.10
2018,10,14,16,38,15.10
2018,10,14,16,39,15.20
2018,10,14,16,40,15.20
2018,10,14,16,41,15.30
2018,10,14,16,42,15.20
2018,10,14,16,43,15.10
2018,10,14,16,44,15.10
2018,10,14,16,45,15.10
2018,10,14,16,46,15.10
2018,10,14,16,47,15.00
2018,10,14,16,48,15.10
2018,10,14,16,49,15.10
2018,10,14,16,50,15.20
2018,10,14,16,51,15.20
2018,10,14,16,52,15.20
2018,10,14,16,53,15.20
2018,10,14,16,54,15.20
2018,10,14,16,55,15.10
2018,10,14,16,56,14.90
2018,10,14,16,57,14.80
2018,10,14,16,58,14.70
2018,10,14,16,59,14.60
2018,10,14,17,00,14.60
2018,10,14,17,01,14.60
2018,10,14,17,02,14.70
2018,10,14,17,03,14.80
2018,10,14,17,04,14.90
2018,10,14,17,05,14.90
2018,10,14,17,06,14.80
2018,10,14,17,07,14.70
2018,10,14,17,08,14.50
2018,10,14,17,09,14.40
2018,10,14,17,10,14.30
2018,10,14,17,11,14.20
2018,10,14,17,12,14.20
2018,10,14,17,13,14.20
2018,10,14,17,14,14.20
2018,10,14,17,15,14.30
2018,10,14,17,16,14.40
2018,10,14,17,17,14.40
2018,10,14,17,18,14.50
2018,10,14,17,19,14.50
2018,10,14,17,20,14.60
2018,10,14,17,21,14.60
2018,10,14,17,22,14.60
2018,10,14,17,23,14.60
2018,10,14,17,24,14.70
2018,10,14,17,25,14.70
2018,10,14,17,26,14.80
2018,10,14,17,27,14.80
2018,10,14,17,28,14.90
2018,10,14,17,29,15.00
2018,10,14,17,30,15.00
2018,10,14,17,31,15.00
2018,10,14,17,32,15.10
2018,10,14,17,33,15.10
2018,10,14,17,34,15.10
2018,10,14,17,35,15.20
2018,10,14,17,36,15.30
2018,10,14,17,37,15.30
2018,10,14,17,38,15.30
2018,10,14,17,39,15.30
2018,10,14,17,40,15.30
2018,10,14,17,41,15.30
2018,10,14,17,42,15.30
2018,10,14,17,43,15.30
2018,10,14,17,44,15.20
2018,10,14,17,45,15.20
2018,10,14,17,46,15.10
2018,10,14,17,47,15.10
2018,10,14,17,48,15.10
2018,10,14,17,49,15.10